CZ-3C DEB, 42467

Orbit data source: Space-Track

CZ-3C DEB, 42467 is space debris in HEO originally from a launch on Sun, 31 Oct 2010 UTC launched from the Xichang Space Center, China (XSC). Debris objects in space refer to the collection of defunct objects orbiting the Earth. Examples of debris include non-operational satellites, rocket bodies, and fragments generated from explosions, collisions, or faulty payload assembly.

Loading next visibility...
Identifier
42467, 2010-057BG
Orbit
HEO
Country
Flag of CNCN / PRC
Related business
Manufacturer
CALT
Mission
Spacecraft
Bus & Motor
Unknown
Mass
Unknown
Launch date (UTC)
2010-10-31 (15 years ago)
Launch vehicle
Unknown
Launch site
Xichang Space Center, China (XSC)
Object type
Payload
Rocket body
Debris
Shape & HBR
Unknown shape, 0.2 m
Radar Cross Section
Medium (>0.1 m² and <1 m²)

Expand to show TLE details & history
Last TLE update: 5 days ago

TLE from 5 days ago
0 CZ-3C DEB
1 42467U 10057BG  25344.46951927  .00020623  00000-0  12608-1 0  9998
2 42467  20.1850 346.0489 4499987 270.0589  40.1861  6.31112350229168
Epoch: 2025-12-10T11:16Z
TLE epoch observation values (Epoch: 2025-12-10T11:16:06.464Z)
Latitude
-0.00009°
Longitude
97.57834°
Altitude
3,479.259 km
Speed
6.975 km/s
True Right ascension
23h 04m 10s
True Declination
0° 00' 00"
Sunlit
Object was in daylight at epoch
Visualization orbit readout
Latitude
Unknown
Longitude
Unknown
Altitude
Unknown
Speed
Unknown
Apparent Right ascension
Unknown
Apparent Declination
Unknown
Sunlit
N/A
Visualization observer readout
Local Sidereal Time
19:02:02
Azimuth
Unknown
Elevation
Unknown
Doppler factor
Unknown
Orbital elements
Apogee altitude
11,562.704 km
Perigee altitude
427.032 km
Semi-major axis
12,373.005 km
Eccentricity
0.45
Inclination
20.185°
RAAN
346.0489°
Arg. of periapsis
270.0589°
True anomaly
89.93636°
Mean anomaly
40.1861°
Eccentric anomaly
63.19958°
Mean motion
1.577 °/min
Orbital period
228.28 mins
BSTAR
0.012608
Loading maneuver chart data...
Computing Atmospheric mass density...
Loading historical data...
Loading historical data...
Loading historical data...
Loading historical data...
Loading historical data...
Loading historical data...
Loading historical data...

Documentation

Showing up to 5 results
|